Miscellaneous Local Product
Issued by NWS North Platte, NE

Home | Current Version | Previous Version | Text Only | Print | Product List | Glossary On
Versions: 1 2 3 4 5 6 7 8 9 10 11 12 13 14 15 16 17 18 19 20 21 22 23 24 25 26 27 28 29 30 31 32 33 34 35 36 37 38 39 40 41 42 43 44 45 46 47 48 49 50
049
AXUS43 KLBF 041610
MISLBF


WESTERN AND NORTH CENTRAL NEBRASKA HOURLY WEATHER ROUNDUP
NATIONAL WEATHER SERVICE NORTH PLATTE NE
1000 AM CST SUN DEC 04 2016

NOTE: "FAIR" INDICATES FEW OR NO CLOUDS BELOW 12,000 FEET WITH NO
SIGNIFICANT WEATHER AND/OR OBSTRUCTIONS TO VISIBILITY.

NOTE: STATIONS NOT REPORTING VARIABLES SUCH AS SKY/WEATHER OR
PRESSURE ARE PROVIDED BY RAWS AND APRS NETWORKS AND ARE NOT UNDER
NATIONAL WEATHER SERVICE QUALITY CONTROL.

...OBSERVATIONS IN AND NEAR THE EASTERN PANHANDLE OF NEBRASKA...

CITY           SKY/WX    TMP DP  RH WIND       PRES   REMARKS
PINE RIDGE     SUNNY     31  16  54 W9        29.94S WCI  23
CHADRON        SUNNY     34  14  43 SW14      29.94F WCI  25
ALLIANCE       SUNNY     29  18  63 W10       29.95F WCI  20
SIDNEY         SUNNY     36  14  40 W20       30.00S WCI  25
CRESCENT LAKE    N/A     50  17  27 W8          N/A
$$

...OBSERVATIONS IN NORTHERN NEBRASKA AND FAR SOUTHERN SOUTH DAKOTA...

CITY           SKY/WX    TMP DP  RH WIND       PRES   REMARKS
WINNER         FAIR      41  25  53 W13       29.90R
VALENTINE      SUNNY     36  21  54 W15       29.92F WCI  27
THEDFORD       SUNNY     36  23  60 W13       29.96S WCI  27
AINSWORTH      SUNNY     35  24  65 W13       29.92S WCI  26
O`NEILL        SUNNY     36  28  73 W12       29.93S WCI  28
ORD            SUNNY     35  27  72 CALM      29.96S
BROKEN BOW     SUNNY     37  24  59 W9        29.97R WCI  30
VALENTINE NWR    N/A     50  20  31 W8          N/A
BUTTE            N/A     34  28  77 SW6         N/A  WCI  29
HALSEY           N/A     33  20  58 W8          N/A  WCI  26
CHAMBERS         N/A     37  26  66 W3          N/A
EWING            N/A     34  30  85 W5          N/A  WCI  30
$$

...OBSERVATIONS IN SOUTHWEST NEBRASKA AND FAR NORTHEAST COLORADO...

CITY           SKY/WX    TMP DP  RH WIND       PRES   REMARKS
WRAY           FAIR      28  16  59 W8        30.05  WCI  20
HOLYOKE        FAIR      36  19  51 W8        30.03S WCI  29
IMPERIAL       SUNNY     35  17  47 NW13      30.03S WCI  26
OGALLALA       SUNNY     37  20  50 SW10      30.01S WCI  30
NORTH PLATTE   SUNNY     33  23  66 W10       30.01R WCI  25
MCCOOK         SUNNY     31  20  63 W14       30.05R WCI  21
LEXINGTON      SUNNY     33  26  75 NW14      30.01R WCI  23
STAPLETON        N/A     34  25  68 CALM        N/A
GOTHENBURG       N/A     34  24  65 W7          N/A  WCI  28
CALLAWAY         N/A     35  27  73 W10         N/A  WCI  27
$$

...OBSERVATIONS IN CENTRAL LINCOLN COUNTY AREA...

CITY           SKY/WX    TMP DP  RH WIND       PRES   REMARKS
N.P. AIRPORT   SUNNY     33  23  66 W10       30.01R WCI  25
N.P. DOWNTOWN    N/A     33  23  66 W5G12       N/A  WCI  28
N.P. SOUTHEAST   N/A     33  21  62 W3          N/A
N.P. HILLCREST   N/A     31  26  80 W5          N/A  WCI  26
$$

...SOME OBSERVATIONS FROM AROUND THE REGION...

CITY           SKY/WX    TMP DP  RH WIND       PRES   REMARKS
LARAMIE        CLOUDY    26   7  44 SW17G23   29.95S WCI  13
CHEYENNE       SUNNY     31   6  35 SW13      29.96F WCI  21
DENVER         MOSUNNY   33  12  41 S13       29.99S WCI  24
AKRON          SUNNY     32  12  43 SW8       30.02F WCI  25
SCOTTSBLUFF    SUNNY     30  17  58 CALM      29.97F
RAPID CITY     SUNNY     37  21  52 W13       29.88S WCI  29
BISMARCK       CLOUDY    32  28  85 W13       29.78R WCI  22
PIERRE         SUNNY     30  22  72 W8        29.86S WCI  22
SIOUX FALLS    MOSUNNY   36  30  79 W7        29.87S WCI  30
OMAHA          PTSUNNY   35  30  82 SW6       29.99S WCI  30
GRAND ISLAND   SUNNY     35  29  78 W10       29.99R WCI  27
KANSAS CITY    PTSUNNY   40  36  86 W8        30.01S WCI  34
WICHITA        FOG       37  36  96 NW9       30.07R VSB 1/2 WCI  30
OKLAHOMA CITY  CLOUDY    45  41  86 N15       30.08R
DALLAS         CLOUDY    50  45  83 N12       30.05R
AMARILLO       MOSUNNY   34  32  92 NW12      30.13R WCI  25
DODGE CITY     SUNNY     35  26  69 NW10      30.10R WCI  27
HAYS           SUNNY     35  25  66 NW17      30.05S WCI  25
GOODLAND       SUNNY     35  16  45 W16       30.06R WCI  25
$$




USA.gov is the U.S. government's official web portal to all federal, state and local government web resources and services.